[[{"header":{"parameterUnit":"m.s-1","parameterCategory":1,"la1":30.2991,"la2":30.254,"lo1":-89.0895,"lo2":-89.0444,"dy":0.0017,"dx":0.0017,"nx":28,"ny":28,"refTime":"2025-12-31T03:00:00:Z","depth":0,"parameterNumber":2,"parameterNumberName":"U-component_of_WINDS"},"data":[0,0,0,0,0,0,0,0,0,0,0,0,0,0,0,0,0,0,0,0,0,0,0,0,0,0,0,0,0,0,0,0,0,0,0,0,0,0,0,0,0,0,0,0,0,0,0,0,0,0,0,0,0,0,0,0,0,0,1.8047,1.8047,0,1.8018,1.8018,1.8018,1.7992,1.7992,1.7991,1.7991,1.796,1.7959,1.7959,0,0,0,0,0,0,0,0,0,0,0,0,0,1.8078,1.8077,1.8047,1.8047,1.8046,1.8018,1.8018,1.8018,1.7992,1.7992,1.7991,1.7991,1.796,1.7959,1.7959,0,0,0,0,0,0,0,0,0,0,0,0,0,1.8058,1.8077,1.8047,1.803,1.8028,1.8019,1.8018,1.8018,1.7992,1.7992,1.7991,1.7991,1.796,1.7959,1.7958,1.7962,0,0,1.7956,1.7956,0,0,0,0,0,0,0,0,1.8059,1.8057,1.8033,1.8031,1.8029,1.8008,1.8017,1.7999,1.7992,1.8006,1.7991,1.7991,1.7976,1.7974,1.7969,1.7961,1.7959,1.7956,1.7955,1.7955,1.7955,0,0,0,0,0,0,0,1.8061,1.8058,1.8036,1.8033,1.803,1.8024,1.802,1.8014,1.7994,1.8005,1.8003,1.8,1.7975,1.797,1.7969,1.7959,1.7956,1.7955,1.7955,1.7954,1.7952,1.7952,0,0,0,0,0,0,1.8065,1.806,1.8037,1.8035,1.8044,1.8023,1.802,1.8016,1.7994,1.799,1.8,1.7999,1.7972,1.797,1.7967,1.797,1.7955,1.7954,1.7954,1.7951,1.7952,1.7952,0,0,0,0,0,0,1.8066,1.8063,1.8038,1.8047,1.8043,1.8023,1.8019,1.8015,1.8011,1.7991,1.7987,1.7999,1.7972,1.7969,1.7964,1.7968,1.7954,1.7953,1.7951,1.7952,1.7952,1.7975,0,0,0,0,0,0,1.8067,1.8064,1.8065,1.8047,1.8043,1.8035,1.8019,1.8015,1.8009,1.8007,1.7989,1.7985,1.7971,1.7965,1.7963,1.7967,1.7952,1.795,1.7951,1.7952,1.7974,1.7977,1.7979,0,0,0,0,0,1.8068,1.8072,1.8065,1.8063,1.8044,1.8035,1.8033,1.8017,1.801,1.8011,1.7998,1.7986,1.7969,1.7965,1.7962,1.7966,1.795,1.7951,1.7952,1.7973,1.7976,1.7979,0,0,0,0,0,0,1.8091,1.807,1.8062,1.806,1.805,1.8031,1.8032,1.8021,1.8012,1.801,1.7991,1.7987,1.7984,1.7975,1.7971,1.7969,1.7958,1.7958,1.7975,1.7978,1.798,1.7982,1.7952,0,0,0,0,0,1.8096,1.8091,1.8073,1.8073,1.8069,1.8052,1.8047,1.8036,1.8024,1.802,1.8006,1.7995,1.7987,1.7982,1.7974,1.7973,1.7968,1.7975,1.7977,1.7979,1.7979,1.7978,1.798,1.7956,1.7956,1.7956,0,0,1.8106,1.8094,1.8092,1.8078,1.8068,1.8063,1.8048,1.8043,1.8039,1.8019,1.8013,1.8004,1.7989,1.7987,1.7985,1.7979,1.7986,1.7981,1.7982,1.7981,1.7979,1.7982,1.7984,1.7956,1.7956,1.7956,0,0,1.8121,1.8112,1.8111,1.8103,1.8089,1.8078,1.8078,1.8061,1.8054,1.8048,1.8033,1.8028,1.8015,1.8005,1.7998,1.8012,1.7999,1.801,1.8022,1.8021,1.8023,1.8024,1.8028,1.803,1.801,1.801,1.801,0,1.8135,1.8127,1.8112,1.8108,1.8103,1.8085,1.8084,1.8076,1.806,1.8056,1.805,1.8034,1.8023,1.8018,1.8021,1.8017,1.8015,1.8011,1.8024,1.8025,1.8027,1.803,1.8032,1.8011,1.8011,1.8011,1.8011,0,1.8144,1.8139,1.814,1.8126,1.8121,1.8119,1.8103,1.8099,1.8089,1.8078,1.8073,1.806,1.8048,1.8047,1.8037,1.804,1.8037,1.8028,1.8016,1.803,1.8033,1.8035,1.8013,1.8013,1.8012,1.8012,0,0,1.8171,1.815,1.8151,1.8144,1.8129,1.8124,1.8121,1.8111,1.8108,1.8098,1.8094,1.8084,1.8076,1.8068,1.8057,1.8057,1.8067,1.8047,1.8047,1.8051,1.8069,1.8076,1.8077,1.806,1.806,1.806,1.807,0,1.8183,1.8177,1.8164,1.8162,1.8157,1.8141,1.8138,1.8128,1.8118,1.8112,1.8101,1.8094,1.8084,1.808,1.8078,1.8066,1.807,1.8065,1.8055,1.8055,1.8058,1.8079,1.8085,1.8095,1.8071,1.8072,1.8072,0,1.8195,1.8187,1.8185,1.817,1.8167,1.8165,1.8155,1.815,1.8138,1.8131,1.8124,1.8112,1.8107,1.8098,1.8091,1.8088,1.8083,1.8077,1.8077,1.8074,1.8063,1.8075,1.8098,1.8099,1.8073,1.8073,1.8073,0,1.8214,1.8203,1.82,1.8195,1.8178,1.8176,1.8169,1.8157,1.8152,1.8143,1.8139,1.813,1.8124,1.8117,1.8103,1.8097,1.8097,1.8087,1.809,1.8091,1.809,1.809,1.8111,1.8089,1.8089,1.8089,1.8089,0,1.8228,1.8227,1.8208,1.8206,1.8204,1.819,1.8188,1.8179,1.8169,1.8164,1.815,1.8147,1.8129,1.8123,1.8111,1.8107,1.8105,1.8099,1.8095,1.8099,1.81,1.8094,1.8093,1.8089,1.8089,1.8089,1.8089,0,1.8248,1.8235,1.8231,1.8216,1.8212,1.8211,1.8197,1.8195,1.8185,1.8179,1.8177,1.8161,1.8154,1.8139,1.8127,1.812,1.8117,1.8113,1.8121,1.8119,1.8123,1.8123,1.8141,1.8142,1.8121,1.8121,1.8121,0,1.8257,1.8255,1.824,1.8237,1.823,1.8225,1.822,1.8205,1.82,1.8188,1.8186,1.8178,1.817,1.8158,1.8145,1.8136,1.813,1.8137,1.8128,1.8132,1.8129,1.8129,1.8128,1.8138,1.8139,1.8139,1.8139,0,1.8273,1.8267,1.8261,1.8253,1.8247,1.824,1.8231,1.8229,1.8213,1.8208,1.82,1.8195,1.8183,1.8174,1.8163,1.8155,1.8144,1.8142,1.8143,1.8146,1.815,1.8147,1.8125,1.8142,1.8141,1.8141,1.8141,1.8141,1.8287,1.8285,1.8274,1.8268,1.826,1.8253,1.825,1.824,1.8234,1.8223,1.8215,1.8208,1.8197,1.8181,1.8174,1.8168,1.8163,1.8163,1.8163,1.8163,1.8164,1.8153,1.8166,1.8166,1.8166,1.8166,1.8166,0,1.8302,1.8295,1.8289,1.8278,1.8273,1.8265,1.8255,1.8251,1.8245,1.8236,1.8229,1.822,1.8212,1.8199,1.819,1.8187,1.8182,1.8185,1.8184,1.8183,1.817,1.817,1.819,1.819,1.819,1.819,1.819,1.819,1.8309,1.8305,1.8299,1.8291,1.8284,1.8277,1.8272,1.8266,1.8258,1.8249,1.8243,1.8235,1.8224,1.8214,1.8206,1.8202,1.8199,1.8203,1.8198,1.8186,1.8184,1.8181,1.8181,1.8203,1.8203,1.8211,1.8211,1.8211]},{"header":{"parameterUnit":"m.s-1","parameterCategory":1,"la1":30.2991,"la2":30.254,"lo1":-89.0895,"lo2":-89.0444,"dy":0.0017,"dx":0.0017,"nx":28,"ny":28,"refTime":"2025-12-31T03:00:00:Z","depth":0,"parameterNumber":3,"parameterNumberName":"V-component_of_WINDS"},"data":[0,0,0,0,0,0,0,0,0,0,0,0,0,0,0,0,0,0,0,0,0,0,0,0,0,0,0,0,0,0,0,0,0,0,0,0,0,0,0,0,0,0,0,0,0,0,0,0,0,0,0,0,0,0,0,0,0,0,-5.1696,-5.1698,0,-5.1909,-5.1912,-5.1914,-5.1875,-5.1871,-5.1867,-5.1864,-5.2079,-5.2088,-5.2097,0,0,0,0,0,0,0,0,0,0,0,0,0,-5.1252,-5.126,-5.1696,-5.1699,-5.1701,-5.1909,-5.1912,-5.1915,-5.1876,-5.1871,-5.1866,-5.1862,-5.2076,-5.2087,-5.2098,0,0,0,0,0,0,0,0,0,0,0,0,0,-5.1453,-5.1263,-5.1695,-5.1707,-5.171,-5.1908,-5.1912,-5.1915,-5.1877,-5.1871,-5.1865,-5.186,-5.2072,-5.2086,-5.21,-5.2299,0,0,-5.2142,-5.2148,0,0,0,0,0,0,0,0,-5.1441,-5.1469,-5.1702,-5.1706,-5.171,-5.186,-5.1834,-5.2044,-5.1878,-5.1813,-5.1864,-5.1857,-5.2011,-5.2029,-5.2082,-5.2309,-5.2319,-5.2143,-5.2152,-5.2158,-5.2162,0,0,0,0,0,0,0,-5.1427,-5.146,-5.178,-5.1706,-5.1711,-5.17,-5.1723,-5.1874,-5.1941,-5.1818,-5.1816,-5.1842,-5.2012,-5.2068,-5.2086,-5.2322,-5.2143,-5.2155,-5.2164,-5.2169,-5.2723,-5.2729,0,0,0,0,0,0,-5.141,-5.1448,-5.1773,-5.1787,-5.1559,-5.1713,-5.1738,-5.1817,-5.1939,-5.1952,-5.1847,-5.1839,-5.2047,-5.207,-5.2094,-5.2336,-5.2158,-5.2171,-5.2179,-5.2717,-5.2725,-5.2732,0,0,0,0,0,0,-5.1401,-5.144,-5.1765,-5.1617,-5.1658,-5.1727,-5.1816,-5.1825,-5.1881,-5.1961,-5.1972,-5.1893,-5.2044,-5.2074,-5.2249,-5.2342,-5.2177,-5.219,-5.271,-5.2719,-5.2728,-5.282,0,0,0,0,0,0,-5.1388,-5.1437,-5.1514,-5.1619,-5.1666,-5.1917,-5.1822,-5.1833,-5.1906,-5.1898,-5.2007,-5.2019,-5.2042,-5.2228,-5.2262,-5.2359,-5.22,-5.2701,-5.2714,-5.2725,-5.2809,-5.2832,-5.2851,0,0,0,0,0,-5.1373,-5.1531,-5.1518,-5.1557,-5.1764,-5.1923,-5.1949,-5.1973,-5.1914,-5.1991,-5.2042,-5.2016,-5.2326,-5.2246,-5.2285,-5.2386,-5.2696,-5.271,-5.2724,-5.28,-5.2828,-5.2851,0,0,0,0,0,0,-5.1434,-5.1545,-5.1532,-5.1729,-5.1817,-5.1916,-5.2015,-5.2001,-5.2107,-5.2096,-5.2119,-5.2144,-5.2321,-5.2371,-5.228,-5.2586,-5.2503,-5.2525,-5.2547,-5.2574,-5.2594,-5.2579,-5.2212,0,0,0,0,0,-5.1471,-5.1591,-5.1681,-5.1846,-5.1891,-5.1946,-5.2016,-5.2026,-5.2118,-5.2155,-5.2218,-5.2307,-5.2425,-5.2502,-5.2615,-5.2816,-5.2839,-5.2905,-5.2926,-5.2943,-5.2962,-5.3072,-5.3102,-5.2779,-5.2779,-5.2778,0,0,-5.1547,-5.1623,-5.1697,-5.1861,-5.193,-5.2054,-5.1977,-5.2111,-5.2203,-5.2175,-5.2344,-5.2393,-5.2494,-5.2683,-5.2769,-5.273,-5.3056,-5.2961,-5.2974,-5.2984,-5.309,-5.3121,-5.3148,-5.2789,-5.2787,-5.2785,0,0,-5.175,-5.1819,-5.1965,-5.2036,-5.2142,-5.2177,-5.2212,-5.2314,-5.2346,-5.2516,-5.2498,-5.2606,-5.2809,-5.2881,-5.2945,-5.3175,-5.3155,-5.3211,-5.3321,-5.3428,-5.3453,-5.3476,-5.3558,-5.3587,-5.323,-5.323,-5.323,0,-5.1832,-5.2018,-5.2041,-5.2178,-5.225,-5.223,-5.2377,-5.2445,-5.2582,-5.2632,-5.2586,-5.2839,-5.2906,-5.3112,-5.3168,-5.322,-5.326,-5.3199,-5.3448,-5.3471,-5.3492,-5.3571,-5.3602,-5.3236,-5.3236,-5.3235,-5.3234,0,-5.2113,-5.2243,-5.2347,-5.2482,-5.2565,-5.2706,-5.2749,-5.2831,-5.2834,-5.2874,-5.3047,-5.3126,-5.3254,-5.3304,-5.3308,-5.351,-5.3482,-5.3442,-5.3359,-5.3529,-5.3603,-5.3634,-5.3245,-5.3243,-5.3241,-5.3239,0,0,-5.2362,-5.2506,-5.2544,-5.2605,-5.2721,-5.2821,-5.296,-5.3087,-5.3157,-5.3252,-5.3369,-5.3541,-5.3504,-5.3576,-5.3588,-5.3682,-5.3859,-5.363,-5.3633,-5.367,-5.4087,-5.4117,-5.4152,-5.3846,-5.3852,-5.3857,-5.4079,0,-5.2575,-5.2823,-5.2847,-5.3069,-5.3189,-5.3172,-5.3293,-5.3377,-5.3418,-5.3524,-5.3568,-5.369,-5.3632,-5.3676,-5.3768,-5.3818,-5.3943,-5.3802,-5.3955,-5.396,-5.3931,-5.419,-5.4223,-5.4429,-5.4108,-5.4113,-5.4116,0,-5.2858,-5.2963,-5.3197,-5.3296,-5.3347,-5.3456,-5.3574,-5.3676,-5.377,-5.3793,-5.3874,-5.3873,-5.4016,-5.3927,-5.4124,-5.4027,-5.4091,-5.4125,-5.4133,-5.4149,-5.4049,-5.4213,-5.4495,-5.4526,-5.4162,-5.4158,-5.4155,0,-5.3016,-5.3215,-5.3381,-5.3433,-5.3553,-5.363,-5.3683,-5.3771,-5.3846,-5.3948,-5.3997,-5.4114,-5.4178,-5.4269,-5.4299,-5.4232,-5.4495,-5.4408,-5.4517,-5.4517,-5.4574,-5.457,-5.487,-5.4614,-5.4614,-5.4613,-5.4612,0,-5.3253,-5.3397,-5.3453,-5.3555,-5.3716,-5.3741,-5.3899,-5.3948,-5.4027,-5.4137,-5.4129,-5.4233,-5.4266,-5.4376,-5.44,-5.4559,-5.4588,-5.461,-5.4615,-5.4611,-5.4609,-5.4654,-5.464,-5.4621,-5.4619,-5.4618,-5.4616,0,-5.3457,-5.3501,-5.368,-5.3779,-5.3807,-5.392,-5.4004,-5.4102,-5.4141,-5.4281,-5.4315,-5.4375,-5.4504,-5.4543,-5.4697,-5.4713,-5.4899,-5.4891,-5.4868,-5.4869,-5.4975,-5.4965,-5.5315,-5.5362,-5.5075,-5.5078,-5.508,0,-5.3605,-5.3716,-5.3826,-5.39,-5.3957,-5.4076,-5.4152,-5.4181,-5.426,-5.4376,-5.4459,-5.4586,-5.4689,-5.4894,-5.4952,-5.5069,-5.5064,-5.5178,-5.5081,-5.5074,-5.5066,-5.5059,-5.507,-5.5197,-5.52,-5.5202,-5.5204,0,-5.3864,-5.388,-5.3991,-5.411,-5.4201,-5.4295,-5.4386,-5.4447,-5.4489,-5.4578,-5.471,-5.479,-5.4947,-5.5073,-5.5193,-5.5246,-5.5233,-5.5234,-5.5266,-5.5263,-5.5246,-5.5257,-5.4918,-5.5226,-5.5224,-5.5222,-5.5221,-5.522,-5.4045,-5.4143,-5.4236,-5.4359,-5.4431,-5.4516,-5.4613,-5.4664,-5.4774,-5.4905,-5.4915,-5.5057,-5.5148,-5.5307,-5.5367,-5.5477,-5.5444,-5.5489,-5.5501,-5.5512,-5.5521,-5.5228,-5.5499,-5.5498,-5.5498,-5.5497,-5.5497,0,-5.4304,-5.4363,-5.4476,-5.4604,-5.4701,-5.468,-5.478,-5.4862,-5.4988,-5.5074,-5.5175,-5.5326,-5.5448,-5.5515,-5.5636,-5.5712,-5.5709,-5.5743,-5.5738,-5.575,-5.5544,-5.5504,-5.5744,-5.5743,-5.5743,-5.5743,-5.5743,-5.5743,-5.445,-5.4614,-5.4641,-5.4839,-5.4897,-5.5037,-5.5096,-5.5174,-5.5243,-5.5412,-5.5514,-5.5556,-5.5635,-5.5762,-5.5872,-5.5889,-5.5934,-5.5972,-5.5984,-5.579,-5.5765,-5.5741,-5.5704,-5.5981,-5.5982,-5.6182,-5.6184,-5.6185]}]]